Weather History for Rhinelander, WI

Change the Weather History Date:

Wednesday, October 26, 2011

  Actual Average Record
Temperature  
Mean Temperature 38 °F 40 °F  
Max Temperature 48 °F 49 °F 75 °F (1989)
Min Temperature 28 °F 31 °F 15 °F (1962)
Degree Days  
Heating Degree Days 27 25  
Month to date heating degree days 378 532  
Since 1 July heating degree days 732 964  
Cooling Degree Days 0 0  
Month to date cooling degree days 10 0  
Year to date cooling degree days 321 259  
Moisture  
Dew Point 33 °F    
Average Humidity 77    
Maximum Humidity 100    
Minimum Humidity 53    
Precipitation  
Precipitation 0.02 in 0.08 in 1.20 in (1913)
Month to date precipitation 1.17 2.68  
Year to date precipitation 24.33 27.76  
Snow  
Snow T in - 0.50 in (1917)
Month to date snowfall T  
Since 1 July snowfall T  
Since 1 September snowfall T  
Snow Depth 0.00 in    
Sea Level Pressure  
Sea Level Pressure 30.04 in    
Wind  
Wind Speed 4 mph (North)    
Max Wind Speed 12 mph    
Max Gust Speed 16 mph    
Visibility 10 miles    
Events      
T = Trace of Precipitation, MM = Missing Value Source: NWS Daily Summary

Daily Weather History Graph

Daily Weather History Graph

Search for Another Location

Airport:

Trip Planner

Search our weather history database for the weather conditions in past years. The results will help you decide how hot, cold, wet, or windy it might be!

Date:

Astronomy

Oct. 26, 2011 Rise Set
Actual Time 7:28 AM CDT 5:54 PM CDT
Civil Twilight 6:58 AM CDT 6:24 PM CDT
Nautical Twilight 6:23 AM CDT 6:59 PM CDT
Astronomical Twilight 5:49 AM CDT 7:33 PM CDT
Moon 7:19 AM CDT (10/26) 5:32 PM CDT (10/26)
Length of Visible Light 11h 26m
Length of Day
10h 25m
Waning Crescent, 0% of the Moon is Illuminated
Oct 26
Waning Crescent
Oct 26
New
Nov 2
First Quarter
Nov 10
Full
Nov 18
Last Quarter

Hourly Weather History & Observations

Time (CDT) Temp. Windchill Dew Point Humidity Pressure Visibility Wind Dir Wind Speed Gust Speed Precip Events Conditions
12:38 AM 35.6 °F 31.7 °F 33.8 °F 93% 29.98 in 10.0 mi NNE 4.6 mph - N/A   Overcast
12:53 AM 34.0 °F 28.8 °F 33.1 °F 96% 30.03 in 10.0 mi NNE 5.8 mph - N/A   Overcast
1:53 AM 35.1 °F - 33.1 °F 92% 30.03 in 10.0 mi Calm Calm - N/A   Overcast
2:41 AM 35.6 °F 30.7 °F 33.8 °F 93% 29.99 in 10.0 mi North 5.8 mph - N/A   Overcast
2:53 AM 36.0 °F 32.1 °F 34.0 °F 93% 30.04 in 10.0 mi North 4.6 mph - N/A   Overcast
3:53 AM 36.0 °F 29.6 °F 34.0 °F 93% 30.04 in 10.0 mi North 8.1 mph - N/A   Overcast
4:14 AM 35.6 °F 32.8 °F 33.8 °F 93% 30.00 in 10.0 mi North 3.5 mph - N/A   Overcast
4:53 AM 36.0 °F 33.3 °F 34.0 °F 93% 30.05 in 10.0 mi North 3.5 mph - N/A   Overcast
5:53 AM 36.0 °F 33.3 °F 34.0 °F 93% 30.04 in 10.0 mi North 3.5 mph - N/A   Overcast
6:53 AM 36.0 °F 32.1 °F 34.0 °F 93% 30.05 in 10.0 mi North 4.6 mph - N/A   Overcast
7:53 AM 36.0 °F 31.1 °F 33.1 °F 89% 30.06 in 10.0 mi North 5.8 mph - N/A   Overcast
8:53 AM 37.0 °F 32.4 °F 33.1 °F 86% 30.07 in 10.0 mi North 5.8 mph - N/A   Overcast
9:53 AM 37.9 °F 34.4 °F 34.0 °F 86% 30.06 in 10.0 mi North 4.6 mph - N/A   Overcast
10:53 AM 39.9 °F 35.1 °F 33.1 °F 77% 30.08 in 10.0 mi Variable 6.9 mph - N/A   Overcast
11:53 AM 42.1 °F 37.7 °F 33.1 °F 70% 30.08 in 10.0 mi Variable 6.9 mph - N/A   Overcast
12:53 PM 44.1 °F 42.5 °F 34.0 °F 68% 30.08 in 10.0 mi Variable 3.5 mph - N/A   Overcast
1:22 PM 44.6 °F 40.2 °F 33.8 °F 66% 30.03 in 10.0 mi NNW 8.1 mph - N/A   Mostly Cloudy
1:32 PM 44.6 °F 41.4 °F 33.8 °F 66% 30.02 in 10.0 mi Variable 5.8 mph - N/A   Mostly Cloudy
1:53 PM 46.0 °F 42.5 °F 33.1 °F 61% 30.05 in 10.0 mi NW 6.9 mph - N/A   Mostly Cloudy
2:53 PM 46.0 °F 43.9 °F 30.9 °F 56% 30.04 in 10.0 mi Variable 4.6 mph - N/A   Overcast
3:53 PM 46.0 °F 43.9 °F 33.1 °F 61% 30.03 in 10.0 mi East 4.6 mph - N/A   Mostly Cloudy
4:53 PM 43.0 °F 37.2 °F 33.1 °F 68% 30.05 in 10.0 mi North 10.4 mph 16.1 mph N/A   Overcast
5:01 PM 41.0 °F 38.0 °F 33.8 °F 76% 30.00 in 10.0 mi North 4.6 mph 16.1 mph N/A   Overcast
5:53 PM 36.0 °F 32.1 °F 32.0 °F 86% 30.04 in 10.0 mi WSW 4.6 mph - N/A   Partly Cloudy
6:53 PM 33.1 °F - 30.0 °F 89% 30.04 in 10.0 mi Calm Calm - N/A   Clear
7:53 PM 32.0 °F - 30.0 °F 92% 30.05 in 10.0 mi Calm Calm - N/A   Clear
8:53 PM 30.9 °F - 28.9 °F 92% 30.06 in 10.0 mi Calm Calm - N/A   Partly Cloudy
9:53 PM 32.0 °F - 30.0 °F 92% 30.06 in 10.0 mi Calm Calm - N/A   Partly Cloudy
10:53 PM 32.0 °F - 30.9 °F 96% 30.06 in 10.0 mi Calm Calm - N/A   Clear
11:53 PM 28.0 °F - 25.0 °F 88% 30.06 in 10.0 mi Calm Calm - N/A   Partly Cloudy